Home > Weather > Bünde > Past weeks

Flag for Germany Past Weather in Bünde, North Rhine-Westphalia, Germany — Yesterday and Last 2 Weeks

Now
73 °F

Broken clouds.


Feels Like: 76 °F
Forecast: 61 / 70 °F
Wind: 6 mph from Northwest

Location: Bueckeburg

Current Time: May 31, 2016 at 9:53:03 PM

Latest Report: May 31, 2016 at 8:20 PM


Visibility: N/A

Pressure: 29.86 "Hg

Humidity: 61%

Dew Point: 59 °F

Location of BündeLocation

Past Weather in Bünde — Graph

°F

Bünde Temperature Yesterday

Maximum temperature yesterday: 77 °F (at 4:20 PM)
Minimum temperature yesterday: 61 °F (at 2:20 AM)
Average temperature yesterday: 66 °F

High & Low Weather Summary for the Past Weeks

 TemperatureHumidityPressure
High79 °F (May 22, 2:20 PM)100% (May 22, 8:20 PM)30.04 "Hg (May 22, 8:20 PM)
Low45 °F (May 16, 10:20 PM)44% (May 22, 12:20 PM)29.59 "Hg (May 30, 3:20 PM)
Average60 °F76%29.89 "Hg
* Reported May 16 8:20 PM — May 31 8:20 PM, Bünde, Weather by CustomWeather, © 2016

Note: Actual official high and low records may vary slightly from our data, if they occured in-between our weather recording intervals... More about our weather records

Advertising

Bünde Weather History for the Previous 24 Hours

Scroll right to see more
 ConditionsComfort  
Time TempWeatherWind HumidityBarometerVisibility
8:20 PM
Tue, May 31
73 °FBroken clouds.6 mph61%29.86 "HgN/A
7:20 PM75 °FScattered clouds.6 mph57%29.86 "HgN/A
6:20 PM75 °FScattered clouds.5 mph54%29.83 "HgN/A
5:20 PM73 °FPassing clouds.5 mph57%29.83 "HgN/A
4:20 PM73 °FScattered clouds.6 mph57%29.86 "HgN/A
3:20 PM73 °FScattered clouds.5 mph57%29.86 "HgN/A
2:20 PM73 °FScattered clouds.6 mph53%29.86 "HgN/A
1:20 PM73 °FScattered clouds.5 mph53%29.83 "HgN/A
12:20 PM72 °FScattered clouds.5 mph57%29.83 "HgN/A
11:20 AM70 °FScattered clouds.2 mph60%29.83 "HgN/A
10:20 AM68 °FPassing clouds.7 mph69%29.80 "HgN/A
9:20 AM66 °FScattered clouds.5 mph73%29.80 "HgN/A
8:20 AM64 °FScattered clouds.9 mph78%29.80 "HgN/A
7:20 AM63 °FPassing clouds.9 mph83%29.80 "HgN/A
6:20 AM59 °FPassing clouds.2 mph94%29.77 "HgN/A
5:20 AM57 °FPassing clouds.2 mph94%29.77 "HgN/A
4:20 AM57 °FPassing clouds.2 mph94%29.74 "HgN/A
3:20 AM59 °FPassing clouds.3 mph88%29.74 "HgN/A
2:20 AM59 °FPassing clouds.3 mph94%29.74 "HgN/A
1:20 AM59 °FPassing clouds.2 mph94%29.71 "HgN/A
12:20 AM61 °FPassing clouds.1 mph94%29.71 "HgN/A
11:20 PM
Mon, May 30
63 °FPassing clouds.1 mph94%29.71 "HgN/A
10:20 PM63 °FPassing clouds.3 mph94%29.68 "HgN/A
9:20 PM66 °FPassing clouds.6 mph83%29.68 "HgN/A
Weather by CustomWeather, © 2016

See weather overviewHow to use our weather pages